FW8353 Weather Reports


time (UTC)temp
C
wind
direction
speed
KPH
gust
KPH
rain 1hr
cm
rain 24hr
cm
rain mn
cm
humidity
%
barometer
mb
20260906021546 28 226 0.0 0.0 0.00 0.00 0.00 72 1012.6
20260906020044 27 229 0.0 0.0 0.00 0.00 0.00 73 1012.4
20260906014545 28 229 0.0 0.0 0.00 0.00 0.00 73 1012.0
20260906013043 28 229 0.0 0.0 0.00 0.00 0.00 70 1012.0
20260906011543 28 229 0.0 0.0 0.00 0.00 0.00 69 1011.9
20260906010049 28 229 0.0 0.0 0.00 0.00 0.00 67 1011.7
20260906004544 29 229 0.0 0.0 0.00 0.00 0.00 65 1011.5
20260906003042 30 229 0.0 0.0 0.00 0.00 0.00 62 1011.4
20260906001542 30 229 0.0 0.0 0.00 0.00 0.00 60 1011.5
20260906000053 31 229 0.0 1.6 0.00 0.00 0.00 58 1011.7
20260905234548 31 228 0.0 1.6 0.00 0.00 0.00 55 1011.5
20260905233040 32 6 0.0 1.6 0.00 0.00 0.00 55 1011.6
20260905231539 32 240 0.0 1.6 0.00 0.00 0.00 54 1011.7
20260905230038 33 60 0.0 4.8 0.00 0.00 0.00 53 1011.7
20260905224538 34 15 0.0 6.4 0.00 0.00 0.00 52 1011.7
20260905223037 35 49 0.0 8.0 0.00 0.00 0.00 49 1011.5
20260905221536 37 12 0.0 3.2 0.00 0.00 0.00 46 1011.6
20260905220039 37 271 0.0 8.0 0.00 0.00 0.00 46 1011.4
20260905214535 36 269 0.0 1.6 0.00 0.00 0.00 46 1011.3
20260905213034 36 259 0.0 4.8 0.00 0.00 0.00 45 1011.2
20260905211556 36 269 0.0 9.7 0.00 0.00 0.00 44 1011.4
20260905210035 36 168 0.0 3.2 0.00 0.00 0.00 44 1011.5
20260905204529 37 263 1.6 8.0 0.00 0.00 0.00 41 1011.7
20260905203031 38 232 1.6 12.9 0.00 0.00 0.00 42 1011.7
20260905201533 38 255 1.6 12.9 0.00 0.00 0.00 41 1011.8
20260905200022 37 271 1.6 17.7 0.00 0.00 0.00 42 1011.9
20260905194521 37 221 1.6 16.1 0.00 0.00 0.00 42 1012.2
20260905193019 37 264 0.0 11.3 0.00 0.00 0.00 41 1012.3
20260905191517 37 251 4.8 17.7 0.00 0.00 0.00 42 1012.6
20260905190015 37 278 0.0 12.9 0.00 0.00 0.00 44 1012.6
20260905184514 37 269 6.4 14.5 0.00 0.00 0.00 44 1012.8
20260905183011 36 353 8.0 17.7 0.00 0.00 0.00 45 1013.0
20260905181509 37 70 0.0 9.7 0.00 0.00 0.00 47 1013.3
20260905180008 37 268 1.6 8.0 0.00 0.00 0.00 47 1013.3
20260905174507 37 234 1.6 8.0 0.00 0.00 0.00 47 1013.4
20260905173004 36 250 1.6 9.7 0.00 0.00 0.00 49 1013.5
20260905171501 35 276 1.6 6.4 0.00 0.00 0.00 50 1013.5
20260905170112 35 258 0.0 6.4 0.00 0.00 0.00 51 1013.7
20260905164558 35 113 0.0 6.4 0.00 0.00 0.00 51 1014.0
20260905163055 34 235 1.6 6.4 0.00 0.00 0.00 54 1014.1
20260905161552 33 274 3.2 8.0 0.00 0.00 0.00 56 1014.3
20260905160049 33 242 0.0 8.0 0.00 0.00 0.00 57 1014.2
20260905154548 33 280 0.0 4.8 0.00 0.00 0.00 58 1014.3
20260905153044 32 284 1.6 12.9 0.00 0.00 0.00 60 1014.3
20260905151547 31 216 1.6 9.7 0.00 0.00 0.00 65 1014.3
20260905150037 31 276 1.6 8.0 0.00 0.00 0.00 65 1014.3
20260905144534 30 276 0.0 6.4 0.00 0.00 0.00 67 1014.3
20260905143034 30 248 0.0 8.0 0.00 0.00 0.00 70 1014.3
20260905141530 30 234 1.6 8.0 0.00 0.00 0.00 68 1014.3
20260905140025 28 244 0.0 6.4 0.00 0.00 0.00 72 1014.2
20260905134521 28 236 1.6 6.4 0.00 0.00 0.00 74 1014.2
20260905133018 27 241 0.0 6.4 0.00 0.00 0.00 81 1014.2
20260905131521 26 213 0.0 0.0 0.00 0.00 0.00 85 1014.0
20260905130015 25 213 0.0 0.0 0.00 0.00 0.00 88 1014.1
20260905124522 24 214 0.0 0.0 0.00 0.00 0.00 90 1014.0
20260905123010 -17 0.0 0.0 0.00 0.00 0.00 1013.8
20260905121506 -17 0.0 0.0 0.00 0.00 0.00 1013.7
20260905120003 -17 0.0 0.0 0.00 0.00 0.00 1013.6
20260905114558 -17 0.0 0.0 0.00 0.00 0.00 1013.4
20260905113053 -17 0.0 0.0 0.00 0.00 0.00 1013.2
20260905111549 -17 0.0 0.0 0.00 0.00 0.00 1013.2
20260905110059 -17 0.0 0.0 0.00 0.00 0.00 1013.0
20260905104540 -17 0.0 0.0 0.00 0.00 0.00 1013.0
20260905103039 -17 0.0 0.0 0.00 0.00 0.00 1013.1
20260905101535 -17 0.0 0.0 0.00 0.00 0.00 1013.3
20260905100026 -17 0.0 0.0 0.00 0.00 0.00 1013.2
20260905094524 25 208 0.0 0.0 0.00 0.00 0.00 86 1013.2
20260905093022 25 213 0.0 0.0 0.00 0.00 0.00 86 1013.2
20260905091521 24 213 0.0 0.0 0.00 0.00 0.00 88 1013.2
20260905090019 25 213 0.0 0.0 0.00 0.00 0.00 88 1013.2
20260905084516 25 213 0.0 0.0 0.00 0.00 0.00 87 1013.2
20260905083020 25 213 0.0 0.0 0.00 0.00 0.00 86 1013.2
20260905081515 25 213 0.0 0.0 0.00 0.00 0.00 86 1013.4
20260905080013 25 213 0.0 0.0 0.00 0.00 0.00 85 1013.4
20260905074518 25 213 0.0 0.0 0.00 0.00 0.00 83 1013.4
20260905073011 25 213 0.0 0.0 0.00 0.00 0.00 84 1013.6
20260905071517 25 213 0.0 0.0 0.00 0.00 0.00 84 1013.6
20260905070007 25 213 0.0 0.0 0.00 0.00 0.00 80 1013.7
20260905064505 25 213 0.0 0.0 0.00 0.00 0.00 81 1013.6
20260905063001 26 213 0.0 0.0 0.00 0.00 0.00 78 1013.7
20260905061609 26 213 0.0 0.0 0.00 0.00 0.00 78 1013.9
20260905060056 27 213 0.0 0.0 0.00 0.00 0.00 75 1013.9
20260905054557 27 213 0.0 0.0 0.00 0.00 0.00 77 1013.9
20260905053052 27 213 0.0 1.6 0.00 0.00 0.00 75 1013.9
20260905051552 27 213 0.0 0.0 0.00 0.00 0.00 76 1013.8
20260905050050 27 213 0.0 0.0 0.00 0.00 0.00 76 1013.7
20260905044546 27 215 0.0 0.0 0.00 0.00 0.00 73 1013.7
20260905043041 28 205 0.0 0.0 0.00 0.00 0.00 72 1013.7
20260905041536 28 205 0.0 1.6 0.00 0.00 0.00 71 1013.6
20260905040036 28 211 0.0 1.6 0.00 0.00 0.00 71 1013.6
20260905034531 28 198 0.0 0.0 0.00 0.00 0.00 71 1013.6
20260905033028 28 200 0.0 0.0 0.00 0.00 0.00 72 1013.6
20260905031519 27 201 0.0 0.0 0.00 0.00 0.00 74 1013.7
20260905030014 27 248 0.0 0.0 0.00 0.00 0.00 78 1013.8
20260905024509 27 248 0.0 0.0 0.00 0.00 0.00 79 1013.9
20260905023010 27 248 0.0 0.0 0.00 0.00 0.00 77 1013.6